Tillbaka till svenska Fidonet
English   Information   Debug  
FILM   0/18
FNEWS_PUBLISH   4926
FN_SYSOP   42201
FN_SYSOP_OLD1   71952
FTP_FIDO   0/2
FTSC_PUBLIC   0/13972
FUNNY   0/4886
GENEALOGY.EUR   0/71
GET_INFO   105
GOLDED   0/408
HAM   2965/16657
HOLYSMOKE   0/6791
HOT_SITES   0/1
HTMLEDIT   0/71
HUB203   466
HUB_100   264
HUB_400   39
HUMOR   0/29
IC   0/2851
INTERNET   0/424
INTERUSER   0/3
IP_CONNECT   719
JAMNNTPD   0/233
JAMTLAND   0/47
KATTY_KORNER   0/41
LAN   0/16
LINUX-USER   0/19
LINUXHELP   0/1155
LINUX   0/22300
LINUX_BBS   0/957
mail   18.68
mail_fore_ok   249
MENSA   0/341
MODERATOR   0/102
MONTE   0/992
MOSCOW_OKLAHOMA   0/1245
MUFFIN   0/783
MUSIC   0/321
N203_STAT   938
N203_SYSCHAT   313
NET203   321
NET204   69
NET_DEV   0/10
NORD.ADMIN   0/101
NORD.CHAT   0/2572
NORD.FIDONET   189
NORD.HARDWARE   0/28
NORD.KULTUR   0/114
NORD.PROG   0/32
NORD.SOFTWARE   0/88
NORD.TEKNIK   0/58
NORD   0/453
OCCULT_CHAT   0/93
OS2BBS   0/787
OS2DOSBBS   0/580
OS2HW   0/42
OS2INET   0/37
OS2LAN   0/134
OS2PROG   0/36
OS2REXX   0/113
OS2USER-L   207
OS2   0/4830
OSDEBATE   0/18996
PASCAL   0/490
PERL   0/457
PHP   0/45
POINTS   0/405
POLITICS   0/29554
POL_INC   0/14731
PSION   103
R20_ADMIN   1133
R20_AMATORRADIO   0/2
R20_BEST_OF_FIDONET   16
R20_CHAT   0/896
R20_DEPP   0/3
R20_DEV   400
R20_ECHO2   1830
R20_ECHOPRES   0/35
R20_ESTAT   0/719
R20_FIDONETPROG...
...RAM.MYPOINT
  0/2
R20_FIDONETPROGRAM   0/22
R20_FIDONET   0/248
R20_FILEFIND   0/24
R20_FILEFOUND   0/22
R20_HIFI   0/3
R20_INFO2   3722
R20_INTERNET   0/12940
R20_INTRESSE   0/60
R20_INTR_KOM   0/99
R20_KANDIDAT.CHAT   42
R20_KANDIDAT   28
R20_KOM_DEV   112
R20_KONTROLL   0/13360
R20_KORSET   0/18
R20_LOKALTRAFIK   0/24
R20_MODERATOR   0/1852
R20_NC   76
R20_NET200   245
R20_NETWORK.OTH...
...ERNETS
  0/13
R20_OPERATIVSYS...
...TEM.LINUX
  0/44
R20_PROGRAMVAROR   0/1
R20_REC2NEC   534
R20_SFOSM   0/341
R20_SF   0/108
R20_SPRAK.ENGLISH   0/1
R20_SQUISH   107
R20_TEST   2
R20_WORST_OF_FIDONET   20
RAR   0/9
RA_MULTI   106
RA_UTIL   0/162
REGCON.EUR   0/2068
REGCON   0/13
SCIENCE   0/1206
SF   0/239
SHAREWARE_SUPPORT   0/5146
SHAREWRE   0/14
SIMPSONS   0/169
STATS_OLD1   0/2539.065
STATS_OLD2   0/2530
STATS_OLD3   0/2395.095
STATS_OLD4   0/1692.25
SURVIVOR   0/495
SYSOPS_CORNER   0/3
SYSOP   0/84
TAGLINES   0/112
TEAMOS2   0/4530
TECH   0/2617
TEST.444   0/105
TRAPDOOR   0/19
TREK   0/755
TUB   0/290
UFO   0/40
UNIX   0/1316
USA_EURLINK   0/102
USR_MODEMS   0/1
VATICAN   0/2740
VIETNAM_VETS   0/14
VIRUS   0/378
VIRUS_INFO   0/201
VISUAL_BASIC   0/473
WHITEHOUSE   0/5187
WIN2000   0/101
WIN32   0/30
WIN95   0/4291
WIN95_OLD1   0/70272
WINDOWS   0/1517
WWB_SYSOP   0/419
WWB_TECH   0/810
ZCC-PUBLIC   0/1
ZEC   4

 
4DOS   0/134
ABORTION   0/7
ALASKA_CHAT   0/506
ALLFIX_FILE   0/1313
ALLFIX_FILE_OLD1   0/7997
ALT_DOS   0/152
AMATEUR_RADIO   0/1039
AMIGASALE   0/14
AMIGA   0/331
AMIGA_INT   0/1
AMIGA_PROG   0/20
AMIGA_SYSOP   0/26
ANIME   0/15
ARGUS   0/924
ASCII_ART   0/340
ASIAN_LINK   0/651
ASTRONOMY   0/417
AUDIO   0/92
AUTOMOBILE_RACING   0/105
BABYLON5   0/17862
BAG   135
BATPOWER   0/361
BBBS.ENGLISH   0/382
BBSLAW   0/109
BBS_ADS   0/5290
BBS_INTERNET   0/507
BIBLE   0/3563
BINKD   0/1119
BINKLEY   0/215
BLUEWAVE   0/2173
CABLE_MODEMS   0/25
CBM   0/46
CDRECORD   0/66
CDROM   0/20
CLASSIC_COMPUTER   0/378
COMICS   0/15
CONSPRCY   0/899
COOKING   41433
COOKING_OLD1   0/24719
COOKING_OLD2   0/40862
COOKING_OLD3   0/37489
COOKING_OLD4   0/35496
COOKING_OLD5   9370
C_ECHO   0/189
C_PLUSPLUS   0/31
DIRTY_DOZEN   0/201
DOORGAMES   0/2282
DOS_INTERNET   0/196
duplikat   6102
ECHOLIST   0/18295
EC_SUPPORT   0/318
ELECTRONICS   0/359
ELEKTRONIK.GER   1534
ENET.LINGUISTIC   0/13
ENET.POLITICS   0/4
ENET.SOFT   0/11701
ENET.SYSOP   34296
ENET.TALKS   0/32
ENGLISH_TUTOR   0/2000
EVOLUTION   0/1335
FDECHO   0/217
FDN_ANNOUNCE   0/7068
FIDONEWS   25062
FIDONEWS_OLD1   0/49742
FIDONEWS_OLD2   0/35949
FIDONEWS_OLD3   0/30874
FIDONEWS_OLD4   0/37224
FIDO_SYSOP   12922
FIDO_UTIL   0/180
FILEFIND   0/209
FILEGATE   0/212
Möte HAM, 16657 texter
 lista första sista föregående nästa
Text 4334, 908 rader
Skriven 2011-02-17 22:30:58 av Amsat List (1:323/120.0)
Ärende: [keps]  orb11048.amsa
=============================
[keps]  orb11048.amsa

Return-Path: <keps-bounces@amsat.org>
X-Rcpt: craig.healy@chowda.com
X-UIDL: 1297998831.771

SB KEPS @ AMSAT  $ORB11048.O
Orbital Elements  11048.OSCAR

HR AMSAT ORBITAL ELEMENTS FOR OSCAR SATELLITES
FROM WA5QGD FORT WORTH,TX February 17, 2011
Send Subscribe/unsubscribe to KEPS at http://www.amsat.org/mailman/listinfo/kep
BID: ORB11048.O
TO ALL RADIO AMATEURS BT

Satellite: AO-07
Catalog number: 07530
Epoch time:      11047.56918477
Element set:    0008
Inclination:      101.3959 deg
RA of node:       058.8660 deg
Eccentricity:    0.0011845
Arg of perigee:   155.0573 deg
Mean anomaly:     205.1071 deg
Mean motion:   12.53581114 rev/day
Decay rate:       -2.7e-07 rev/day^2
Epoch rev:           65907
Checksum:              291

Satellite: FO-29
Catalog number: 24278
Epoch time:      11047.95817347
Element set:    0524
Inclination:      098.5259 deg
RA of node:       208.3969 deg
Eccentricity:    0.0350168
Arg of perigee:   208.8162 deg
Mean anomaly:     149.3234 deg
Mean motion:   13.52957748 rev/day
Decay rate:       1.38e-06 rev/day^2
Epoch rev:           71620
Checksum:              342

Satellite: SO-33
Catalog number: 25509
Epoch time:      11048.79142469
Element set:     906
Inclination:      031.4335 deg
RA of node:       199.5819 deg
Eccentricity:    0.0354226
Arg of perigee:   277.3867 deg
Mean anomaly:     078.6655 deg
Mean motion:   14.28366173 rev/day
Decay rate:       2.80e-06 rev/day^2
Epoch rev:           64319
Checksum:              342

Satellite: RS-22
Catalog number: 27939
Epoch time:      11048.64758831
Element set:     999
Inclination:      097.8615 deg
RA of node:       268.2547 deg
Eccentricity:    0.0013882
Arg of perigee:   007.8837 deg
Mean anomaly:     352.2577 deg
Mean motion:   14.63511581 rev/day
Decay rate:       2.16e-06 rev/day^2
Epoch rev:           39485
Checksum:              356

Satellite: VO-52
Catalog number: 28650
Epoch time:      11048.65595022
Element set:     721
Inclination:      097.6598 deg
RA of node:       097.0531 deg
Eccentricity:    0.0026651
Arg of perigee:   190.8797 deg
Mean anomaly:     169.1805 deg
Mean motion:   14.81911985 rev/day
Decay rate:       4.93e-06 rev/day^2
Epoch rev:           31304
Checksum:              330

Satellite: SO-67
Catalog number: 35870
Epoch time:      11048.69450748
Element set:     571
Inclination:      097.2984 deg
RA of node:       095.8859 deg
Eccentricity:    0.0002351
Arg of perigee:   349.3614 deg
Mean anomaly:     159.2341 deg
Mean motion:   15.21348184 rev/day
Decay rate:      1.415e-05 rev/day^2
Epoch rev:            7877
Checksum:              341

Satellite: HO-68
Catalog number: 36122
Epoch time:      11048.75422845
Element set:     122
Inclination:      100.4326 deg
RA of node:       111.3061 deg
Eccentricity:    0.0007982
Arg of perigee:   134.7636 deg
Mean anomaly:     225.4128 deg
Mean motion:   13.16283998 rev/day
Decay rate:       -4.5e-07 rev/day^2
Epoch rev:            5652
Checksum:              282

/EX
SB KEPS @ AMSAT  $ORB11048.D
Orbital Elements  11048.MICROS

HR AMSAT ORBITAL ELEMENTS FOR THE MICROSATS
FROM WA5QGD FORT WORTH,TX February 17, 2011
Send Subscribe/unsubscribe to KEPS at http://www.amsat.org/mailman/listinfo/kep
BID: ORB11048.D
TO ALL RADIO AMATEURS BT

Satellite: UO-11
Catalog number: 14781
Epoch time:      11047.65537482
Element set:    0473
Inclination:      098.0216 deg
RA of node:       104.6564 deg
Eccentricity:    0.0009201
Arg of perigee:   162.2149 deg
Mean anomaly:     197.9406 deg
Mean motion:   14.79890826 rev/day
Decay rate:       4.04e-06 rev/day^2
Epoch rev:           44796
Checksum:              317

Satellite: AO-16
Catalog number: 20439
Epoch time:      11048.74206784
Element set:     120
Inclination:      098.3681 deg
RA of node:       002.4459 deg
Eccentricity:    0.0011028
Arg of perigee:   153.3191 deg
Mean anomaly:     206.8561 deg
Mean motion:   14.31895786 rev/day
Decay rate:        5.1e-07 rev/day^2
Epoch rev:           10052
Checksum:              279

Satellite: LO-19
Catalog number: 20442
Epoch time:      11047.72250623
Element set:    0029
Inclination:      098.3300 deg
RA of node:       006.2837 deg
Eccentricity:    0.0012273
Arg of perigee:   150.6895 deg
Mean anomaly:     209.4977 deg
Mean motion:   14.32122968 rev/day
Decay rate:        6.0e-08 rev/day^2
Epoch rev:           10055
Checksum:              276

Satellite: AO-27
Catalog number: 22825
Epoch time:      11047.88620212
Element set:    0752
Inclination:      098.5161 deg
RA of node:       354.9032 deg
Eccentricity:    0.0007620
Arg of perigee:   271.2126 deg
Mean anomaly:     088.8186 deg
Mean motion:   14.29326246 rev/day
Decay rate:       -8.9e-07 rev/day^2
Epoch rev:           90700
Checksum:              299

Satellite: IO-26
Catalog number: 22826
Epoch time:      11048.81746031
Element set:     489
Inclination:      098.5122 deg
RA of node:       356.3280 deg
Eccentricity:    0.0008112
Arg of perigee:   262.8581 deg
Mean anomaly:     097.1686 deg
Mean motion:   14.29586368 rev/day
Decay rate:        3.9e-07 rev/day^2
Epoch rev:           90725
Checksum:              326

Satellite: GO-32
Catalog number: 25397
Epoch time:      11047.69197506
Element set:    0408
Inclination:      098.3209 deg
RA of node:       046.7373 deg
Eccentricity:    0.0000252
Arg of perigee:   287.3330 deg
Mean anomaly:     072.7821 deg
Mean motion:   14.23196144 rev/day
Decay rate:       -2.8e-07 rev/day^2
Epoch rev:           65482
Checksum:              304

